Location: Drocourt
(49.0571°N, 1.7669°E)
Time: 14:06:05
(UTC+00:00)

Vanguard 2 Rocket - Pass Details

Date: 22 April 2024
Orbit: 556 x 3304 km, 32.9° (Epoch: 22 May)

Event Time Altitude Azimuth Distance (km) Brightness Sun altitude
Rises 19:37:45 0° 212° (SSW) 5,667 11.0 -7.0°
Reaches altitude 10° 19:41:41 10° 202° (SSW) 5,027 10.6 -7.6°
Maximum altitude 19:54:32 32° 147° (SSE) 4,349 9.9 -9.4°
Drops below altitude 10° 20:10:25 10° 95° (E) 6,260 10.6 -11.6°
Sets 20:16:02 0° 87° (E) 7,212 11.0 -12.3°
